EHI
3 3 1 0 0 0 0 0 0 0 0 0 0 0 0 0 0 0 0 0 0 0 0 0 0 0 0 0 0 0 0 0 0 0 0 0 0 0 0 0 0 0 0
3 3 2 1 0 0 0 0 0 0 0 0 0 0 0 0 0 0 0 0 0 0 0 0 0 0 0 0 0 0 0 0 0 0 0 0 0 0 0 0 0 0 0
3 3 3 1 0 0 0 0 0 0 0 0 0 0 0 0 0 0 0 0 0 0 0 0 0 0 0 0 0 0 0 0 0 0 0 0 0 0 0 0 0 0 0
2 3 3 2 1 1 1 1 0 0 0 0 0 0 0 0 0 0 0 0 0 0 0 0 0 0 0 0 0 0 1 1 1 0 0 0 0 0 0 0 0 0 0
1 2 2 2 2 2 2 2 1 0 0 0 0 0 0 0 0 0 0 0 0 0 0 0 0 0 0 0 0 0 1 2 1 0 0 0 0 0 0 0 0 0 0
1 1 1 1 2 3 3 3 1 0 0 0 0 0 0 0 0 0 0 0 0 0 0 0 0 0 0 0 0 0 1 2 1 0 0 0 0 0 0 0 0 0 0
1 1 1 1 2 3 3 3 2 1 0 0 0 0 0 0 0 0 0 0 0 0 0 0 0 0 0 0 0 0 1 1 0 0 0 0 0 0 0 0 0 0 0
1 1 2 1 1 2 2 2 2 1 0 0 0 0 0 0 0 0 0 0 0 0 0 0 0 0 0 0 0 0 0 0 0 0 0 0 0 0 0 0 0 0 0
0 1 2 2 1 1 1 1 1 1 0 0 0 0 0 0 0 0 0 0 0 0 0 0 0 0 0 0 0 0 0 0 0 0 0 0 1 1 0 0 0 0 0
0 1 2 3 3 2 1 0 0 0 0 0 0 0 0 0 0 0 0 0 0 0 0 0 0 0 0 0 0 0 0 0 0 0 0 1 2 1 0 0 0 0 0
0 0 1 2 2 2 1 0 0 0 0 0 0 0 0 0 0 0 0 0 0 0 0 0 0 0 0 0 0 0 0 0 0 0 0 1 1 1 0 0 0 0 0
0 0 0 1 1 1 0 0 0 0 0 0 0 0 0 0 0 0 0 0 0 0 0 0 0 0 0 0 0 0 0 0 0 0 0 1 1 0 0 0 0 0 0
0 0 0 0 0 0 0 0 0 0 0 0 0 0 0 0 0 0 0 0 0 0 0 0 0 0 0 0 0 0 0 0 0 0 0 1 0 0 0 0 0 0 0
0 0 0 0 0 0 0 0 0 0 0 0 0 0 0 0 0 0 0 0 0 0 0 0 0 0 0 0 0 0 0 0 0 0 0 0 0 0 0 0 0 0 0
0 0 0 0 0 0 0 0 0 0 0 0 0 0 0 0 0 0 0 0 0 0 0 0 0 0 0 0 0 0 0 0 0 0 0 0 0 0 0 0 0 0 0
0 0 0 0 0 0 0 0 0 0 0 0 0 0 0 0 0 0 0 0 0 0 0 0 0 0 0 0 0 0 0 0 0 0 0 0 0 0 0 0 0 0 0
0 0 0 0 0 0 0 0 0 0 0 0 0 0 0 0 0 0 0 0 0 0 0 0 0 0 0 0 0 0 0 0 0 0 0 0 0 0 0 0 0 0 0
0 0 0 0 0 0 0 0 0 0 0 0 0 0 0 0 0 0 0 0 0 0 0 0 0 0 0 0 0 0 0 0 0 0 0 0 0 0 0 0 0 0 0
0 0 0 0 0 0 0 0 0 0 0 0 0 0 0 0 0 0 0 0 0 0 0 0 0 0 0 0 0 0 0 0 0 0 0 0 0 0 0 0 0 0 0
0 0 0 0 0 0 0 0 0 0 0 0 0 0 0 0 0 0 0 0 0 0 0 0 0 0 0 0 0 0 0 0 0 0 0 0 0 0 0 0 0 0 0
0 0 0 0 0 0 0 0 0 0 0 0 0 0 0 0 0 0 0 0 0 0 0 0 0 0 0 0 0 0 0 0 0 0 0 0 0 0 0 0 0 0 0
0 0 0 0 0 0 0 0 0 0 0 0 0 0 0 0 0 0 0 0 0 0 0 0 0 0 0 0 0 0 0 0 0 0 0 0 0 0 0 0 0 0 0
0 0 0 0 0 0 0 0 0 0 0 0 0 0 0 0 0 0 0 0 0 0 0 0 0 0 0 0 0 0 0 0 0 0 0 0 0 0 0 0 0 0 0
0 0 0 0 0 0 0 0 0 0 0 0 0 0 0 0 0 0 0 0 0 0 0 0 0 0 0 0 0 0 0 0 0 0 0 0 0 0 0 0 0 0 0
0 0 0 0 0 0 0 0 0 0 0 0 0 0 0 0 0 0 0 0 0 0 0 0 0 0 0 0 0 0 0 0 0 0 0 0 0 0 0 0 0 0 0
0 0 0 0 0 0 0 0 0 0 0 0 0 0 0 0 0 0 0 0 0 0 0 0 0 0 0 0 0 0 0 0 0 0 0 0 0 0 0 0 0 0 0
Wind_Speed
2 2 1 2 2 1 1 1 1 2 2 2 2 2 3 3 3 3 2 5 6 6 6 6 6 5 5 5 5 6 6 6 6 5 5 5 6 6 6 6 5 5 5
2 2 2 2 2 1 1 1 1 1 2 2 2 3 3 3 3 3 2 3 5 5 5 5 5 5 5 5 5 5 6 6 5 5 5 5 4 4 5 5 5 4 5
2 2 2 2 1 1 1 1 2 2 2 2 2 2 2 3 3 3 3 2 2 4 5 4 4 4 4 4 4 5 5 5 5 5 5 4 4 4 4 4 3 3 3
1 2 2 1 1 1 1 1 1 2 1 1 1 2 2 2 2 2 2 2 2 2 3 4 4 4 4 3 3 4 4 3 4 4 4 4 4 3 3 3 3 3 3
2 2 2 1 1 2 2 1 1 1 1 1 1 1 1 1 1 2 2 2 2 2 2 3 4 3 3 3 2 2 2 3 3 3 3 3 2 2 2 3 3 2 3
2 2 2 2 2 2 2 1 1 1 1 1 1 2 1 1 1 1 1 1 2 2 2 2 2 2 3 2 2 1 1 2 2 2 2 2 2 2 2 2 3 3 4
2 2 2 2 2 2 2 2 2 2 1 1 2 1 1 1 1 1 1 1 1 1 1 2 2 1 1 2 2 2 1 1 2 2 2 2 2 2 2 3 3 3 3
1 2 2 2 2 2 2 2 2 1 1 1 1 2 0 1 1 1 0 1 1 1 1 1 1 1 1 1 2 3 2 1 1 2 3 3 2 2 3 3 3 3 2
2 1 2 2 2 2 2 2 2 2 2 0 1 2 2 2 0 0 0 0 0 0 0 0 1 1 1 1 0 2 2 2 1 1 2 2 2 2 3 3 2 2 2
2 2 2 2 2 1 2 2 1 1 3 2 1 0 1 2 2 1 1 0 0 0 0 0 0 0 0 0 1 1 2 3 2 2 3 2 2 2 3 3 2 2 1
2 2 2 2 2 2 2 2 2 1 1 2 2 1 1 0 1 2 2 1 1 1 1 1 1 1 1 1 1 1 1 2 2 2 3 3 2 2 1 2 2 2 2
1 2 2 2 2 2 2 2 2 2 2 2 1 2 2 1 2 1 2 2 2 2 2 1 1 2 1 1 2 1 1 2 3 4 4 4 3 2 2 3 2 2 2
2 2 2 2 2 2 3 3 3 3 3 3 2 2 2 2 1 1 1 2 2 2 2 1 2 2 1 1 1 2 2 2 4 5 5 5 3 3 3 3 4 4 4
3 3 3 2 2 3 3 3 3 3 3 3 3 3 2 2 2 2 2 2 2 2 2 2 1 2 2 2 2 3 2 4 5 6 6 5 4 3 3 4 4 4 4
3 3 3 3 3 3 3 3 3 3 3 4 4 3 3 2 2 2 2 3 3 3 4 2 2 2 2 2 3 2 2 5 5 6 5 4 4 4 4 4 4 4 4
3 4 4 4 4 4 4 4 3 4 4 4 3 4 3 3 2 2 2 2 2 3 4 2 2 2 2 2 3 2 3 5 5 5 5 4 4 5 5 5 5 5 5
4 5 5 5 5 5 5 5 5 5 5 5 4 4 4 4 3 3 3 3 2 2 4 3 2 2 1 2 2 1 2 2 3 5 5 5 5 6 5 5 5 6 6
4 5 5 5 6 6 6 6 6 6 6 6 6 6 6 4 4 4 3 3 3 3 3 4 3 2 2 2 2 2 2 2 2 5 6 6 7 6 6 6 6 6 7
4 4 5 5 6 6 6 7 7 7 7 7 7 7 6 6 6 4 4 4 3 3 3 4 4 2 2 1 1 2 2 2 2 4 6 7 7 7 7 7 7 8 7
3 4 4 4 5 5 5 6 6 6 6 6 6 6 7 7 7 6 5 5 4 4 3 3 3 3 2 2 1 2 2 1 2 2 4 5 6 7 8 9 9 8 7
4 3 3 3 3 4 4 5 5 6 6 6 5 6 6 8 9 7 6 5 5 4 4 4 4 3 3 2 3 2 2 2 2 2 2 3 3 3 4 7 8 8 8
3 2 3 3 4 4 7 9 6 5 5 6 6 5 6 7 9 10 11 10 8 6 6 5 5 5 5 4 3 3 2 2 3 2 2 4 3 4 4 4 7 9 8
2 3 3 3 4 5 8 8 8 5 5 5 6 5 5 6 7 6 7 9 9 10 10 7 7 7 6 5 4 4 4 4 4 3 2 4 2 4 3 5 9 9 9
2 3 3 3 4 5 7 7 8 4 4 4 5 5 6 6 6 6 6 6 6 6 7 6 6 6 6 5 5 5 4 3 3 2 2 3 3 3 3 4 9 10 9
2 2 3 3 3 4 6 7 7 2 3 4 4 4 5 5 8 9 6 6 6 5 6 8 9 8 9 9 6 3 3 3 4 3 2 3 2 2 3 4 5 9 9
3 3 3 3 3 3 5 6 6 2 3 3 3 4 6 6 7 8 6 6 6 6 5 5 5 6 6 6 8 6 5 5 3 3 3 2 2 1 2 2 3 3 5
Wind_Direction
94 78 75 70 72 73 65 57 67 59 52 44 43 48 51 53 57 70 67 62 65 71 83 87 92 103 103 96 99 100 98 95 93 98 109 112 109 106 101 99 96 93 89
99 102 88 72 57 55 71 75 81 74 64 60 44 37 46 54 58 60 72 64 61 62 69 76 83 94 102 100 98 96 95 95 95 99 105 110 111 111 109 105 102 97 93
93 106 101 86 70 51 52 78 74 70 69 63 57 47 44 50 62 60 59 61 61 58 60 65 70 81 93 102 104 103 97 93 92 90 96 101 105 107 113 112 107 102 104
82 109 107 101 92 89 74 79 89 85 74 67 54 47 47 48 66 71 61 55 53 52 55 57 58 68 77 87 100 108 109 104 102 99 103 104 102 102 101 119 123 120 119
54 94 104 102 87 87 84 72 76 107 106 78 59 56 49 47 61 79 73 65 60 57 61 50 42 50 61 70 89 118 129 124 125 121 116 122 121 115 114 112 118 123 121
62 76 93 94 94 90 81 79 96 88 119 116 78 51 20 26 75 85 94 81 69 62 64 61 44 29 35 48 48 55 154 156 155 153 154 156 154 149 142 131 118 118 117
79 89 95 95 92 101 108 105 110 111 110 116 97 73 354 354 90 69 69 91 75 60 74 75 66 52 21 19 19 359 269 200 190 185 179 177 176 174 165 143 127 118 112
105 105 115 124 118 112 102 103 116 113 97 92 126 142 163 3 7 354 32 76 76 55 67 72 82 71 48 45 16 17 12 319 238 219 213 199 186 184 171 152 143 130 115
134 125 136 137 133 134 138 139 139 133 153 186 121 146 159 191 183 313 75 91 81 60 23 29 95 78 63 70 71 22 21 1 305 257 253 229 207 186 173 169 174 155 131
166 159 156 150 151 145 146 158 138 148 155 182 224 266 180 153 158 184 289 245 135 288 266 314 286 219 178 141 87 37 24 357 324 276 268 248 224 204 199 193 185 179 176
174 167 160 157 164 168 168 162 156 173 177 184 192 203 232 146 144 168 214 231 273 265 255 238 219 227 223 182 182 212 6 329 302 277 268 247 250 227 216 207 214 220 223
191 183 174 173 181 184 187 183 181 188 192 197 209 194 191 186 180 177 203 214 235 252 255 243 222 221 210 212 220 240 247 280 291 274 258 245 244 243 251 243 243 247 238
207 204 198 190 192 199 200 192 190 200 197 197 211 214 216 216 203 200 192 227 249 264 237 245 228 217 227 214 227 244 239 269 278 268 251 246 239 244 252 256 250 251 241
204 203 206 205 209 206 208 196 200 208 201 203 217 212 214 228 220 204 195 195 240 261 238 240 243 224 231 221 235 233 231 256 270 272 255 249 253 255 263 266 263 261 253
205 200 208 212 214 212 210 201 206 214 208 209 213 213 214 223 222 223 213 193 193 230 249 234 226 233 235 230 246 228 222 247 264 267 257 258 262 262 260 263 260 262 260
205 201 211 215 216 216 213 211 209 212 214 218 214 213 221 222 220 220 222 226 218 215 243 232 235 237 232 246 253 240 229 250 252 257 255 258 262 263 259 255 255 256 257
205 207 211 213 215 216 212 212 212 211 216 220 220 215 222 220 215 217 222 224 226 221 247 266 262 237 218 223 241 224 226 221 234 248 250 255 257 256 257 258 256 256 257
213 211 212 215 218 220 214 211 214 214 216 217 218 218 221 221 219 221 217 223 226 215 219 245 260 236 225 215 219 226 241 241 230 254 252 252 254 253 254 253 255 256 257
223 220 217 219 223 224 220 216 214 216 219 219 217 220 219 214 221 225 222 222 226 228 218 223 247 246 240 219 221 246 247 239 257 260 258 253 251 250 250 251 252 255 255
226 224 224 227 229 231 228 222 218 219 222 223 224 224 222 219 219 218 223 222 219 220 220 224 238 241 233 227 211 223 262 247 259 267 265 265 256 252 250 252 252 254 253
239 228 225 229 231 234 235 228 225 223 220 224 226 226 228 230 230 229 229 220 212 214 219 226 231 244 235 208 218 220 252 274 265 236 251 257 255 250 246 249 249 246 250
237 225 229 231 237 246 249 246 244 232 225 224 228 228 232 233 234 236 239 236 229 219 217 225 234 232 236 226 226 228 238 252 272 236 236 266 243 244 244 239 244 245 248
241 236 240 237 244 253 254 250 248 246 233 232 230 229 237 237 236 226 233 236 239 238 234 229 231 233 235 229 224 230 231 238 253 242 231 267 253 252 252 250 248 246 248
244 246 253 249 252 256 258 258 253 248 238 237 236 230 231 231 227 223 221 230 237 240 240 236 231 237 242 235 225 227 228 244 264 246 214 249 246 256 269 252 243 242 244
262 258 260 254 252 258 261 263 259 237 241 244 244 240 238 233 237 236 224 225 236 243 248 248 248 249 252 254 248 228 217 229 252 243 218 228 242 271 271 259 243 241 245
261 262 269 262 255 255 262 262 258 233 242 248 245 244 248 247 242 239 224 219 231 236 234 241 244 249 250 249 249 235 219 226 243 248 205 198 225 260 280 261 248 244 247